STARLINK-1148 (45052 NORAD) Tracking and Keplerian Element Data

This shows tracking and keplerian element data for the satellite.

Feedback or suggestion? Click here.




ElementValue
Catalog45052
NameSTARLINK-1148
Epoch Orbit401
Epoch Day52.91667824
Epoch Year2020
RAAN121.1521
Inclination52.9977
Eccentricity0.000143
Argument of Perigee67.0498
Mean Anonmoly320.6189
Mean Motion15.47958558
Decay Rate0.00247858
L11 45052U 20006J 20052.91667824 .00247858 00000-0 45329-2 0 9995
L22 45052 52.9977 121.1521 0001430 67.0498 320.6189 15.47958558 4013

Live tracking and technical data element details for STARLINK-1148 (NORAD 45052). STARLINK-1148 can be tracked NOW for your location showing map with azimuth and elevation plus other details from your city location.

Track the satellite on the map from your city or location and see movement details for azimuth, elevation, latitude, longitude, range, height, and movement on the map or in text.







IsCatalogInMostPopularTable: catalog: 45052, numindb: 7
Update: records affected: 1



GetName: 45052 STARLINK-1148

Hit Count: updated at: Wed, 26 Feb 2020 17:21:36 GMT